Hourly Data Report for October 06, 2017

All times are specified in Local Standard Time (LST). Add 1 hour to adjust for Daylight Saving Time where and when it is observed.

BEAVER ISLAND (AUT)
NOVA SCOTIA

44°49'00.000" N
62°20'00.000" W
16.00 m
8200558
71403
WBV

Download Data

Hourly Data (October 2017)
Hourly Data Report for October 6, 2017
Temp Definition
°C
Dew Point Temp Definition
°C
Rel Hum Definition
%
Wind Dir Definition
10's deg

Wind Spd Definition
km/h
Visibility Definition
km
Stn Press Definition
kPa
Hmdx Definition


Wind Chill Definition


Weather Definition


TIME
00:00 15.3 LegendMM LegendMM 28 14   101.22     LegendNANA
01:00 14.2 LegendMM LegendMM 29 14   101.24     LegendNANA
02:00 14.6 LegendMM LegendMM 23 16   101.16     LegendNANA
03:00 15.2 LegendMM LegendMM 24 23   101.15     LegendNANA
04:00 15.5 LegendMM LegendMM 24 25   101.16     LegendNANA
05:00 14.8 LegendMM LegendMM 28 16   101.21     LegendNANA
06:00 14.4 LegendMM LegendMM 25 16   101.21     LegendNANA
07:00 15.8 LegendMM LegendMM 23 24   101.24     LegendNANA
08:00 15.4 LegendMM LegendMM 27 22   101.33     LegendNANA
09:00 14.9 LegendMM LegendMM 30 17   101.35     LegendNANA
10:00 16.5 LegendMM LegendMM 32 22   101.37     LegendNANA
11:00 16.9 LegendMM LegendMM 31 17   101.39     LegendNANA
12:00 18.0 LegendMM LegendMM 28 12   101.37     LegendNANA
13:00 18.2 LegendMM LegendMM 22 10   101.33     LegendNANA
14:00 17.6 LegendMM LegendMM 22 23   101.30     LegendNANA
15:00 16.6 LegendMM LegendMM 22 32   101.36     LegendNANA
16:00 15.6 LegendMM LegendMM 25 33   101.41     LegendNANA
17:00 15.8 LegendMM LegendMM 25 27   101.46     LegendNANA
18:00 15.8 LegendMM LegendMM 26 19   101.48     LegendNANA
19:00 15.8 LegendMM LegendMM 25 23   101.51     LegendNANA
20:00 15.8 LegendMM LegendMM 26 18   101.55     LegendNANA
21:00 15.1 LegendMM LegendMM 26 18   101.67     LegendNANA
22:00 14.9 LegendMM LegendMM 26 20   101.74     LegendNANA
23:00 14.7 LegendMM LegendMM 26 19   101.78     LegendNANA

Notes on Data Quality.

Legend

  • E = Estimated
  • M = Missing
  • NA = Not Available
  • ‡ = Partner data that is not subject to review by the National Climate Archives
Date modified: